Naples, Italy

11:46 AM CET on February 19, 2018 (GMT +0100)
Capodichino Mil

Weather History for LIRN - August, 2013

Change the Weather History Date:

Tuesday, August 13, 2013

  Actual Average Record
Temperature  
Mean Temperature 78 °F -  
Max Temperature 86 °F 82 °F 97 °F (2015)
Min Temperature 69 °F 62 °F 44 °F (1999)
Cooling Degree Days 12    
Growing Degree Days 28 (Base 50)    
Moisture  
Dew Point 68 °F    
Average Humidity 67    
Maximum Humidity 83    
Minimum Humidity 55    
Precipitation  
Precipitation 0.00 in 0.08 in - ()
Sea Level Pressure  
Sea Level Pressure 29.98 in    
Wind  
Wind Speed 4 mph ()    
Max Wind Speed 12 mph    
Max Gust Speed -    
Visibility 6.1 miles    
Events      
Averages and records for this station are not official NWS values.
T = Trace of Precipitation, MM = Missing Value Source: Averaged Metar Reports

Daily Weather History Graph

Daily Weather History Graph

Search for Another Location

Airport or City:

Trip Planner

Search our weather history database for the weather conditions in past years. The results will help you decide how hot, cold, wet, or windy it might be!

Date:

Astronomy

Aug. 13, 2013 Rise Set
Actual Time 6:10 AM CEST 8:03 PM CEST
Civil Twilight 5:41 AM CEST 8:33 PM CEST
Nautical Twilight 5:05 AM CEST 9:09 PM CEST
Astronomical Twilight 4:26 AM CEST 9:48 PM CEST
Moon 12:50 PM CEST (8/13) 11:22 PM CEST (8/13)
Length of Visible Light 14h 52m
Length of Day
13h 52m
Waxing Crescent, 39% of the Moon is Illuminated
Aug 13
Waxing Crescent
Aug 14
First Quarter
Aug 21
Full
Aug 28
Last Quarter
Sep 5
New

Hourly Weather History & Observations

Time (CEST) Temp. Heat Index Dew Point Humidity Pressure Visibility Wind Dir Wind Speed Gust Speed Precip Events Conditions
12:20 AM 77.0 °F - 68.0 °F 74% 30.01 in - ENE 3.5 mph - N/A   Clear
12:50 AM 77.0 °F - 68.0 °F 74% 30.01 in - NE 2.3 mph - N/A   Clear
1:20 AM 77.0 °F - 68.0 °F 74% 30.01 in - Calm Calm - N/A   Clear
1:50 AM 75.2 °F - 66.2 °F 73% 30.01 in - Calm Calm - N/A   Clear
2:20 AM 75.2 °F - 68.0 °F 78% 29.98 in - Variable 1.2 mph - N/A   Clear
2:50 AM 75.2 °F - 66.2 °F 73% 29.98 in - East 2.3 mph - N/A   Clear
3:20 AM 75.2 °F - 66.2 °F 73% 29.98 in - NNE 2.3 mph - N/A   Clear
3:50 AM 69.8 °F - 62.6 °F 78% 29.95 in - SW 5.8 mph - N/A   Clear
4:20 AM 73.4 °F - 66.2 °F 78% 29.98 in - NNE 3.5 mph - N/A   Clear
4:50 AM 71.6 °F - 66.2 °F 83% 29.98 in - NNE 3.5 mph - N/A   Clear
5:20 AM 73.4 °F - 66.2 °F 78% 29.98 in - North 2.3 mph - N/A   Clear
5:50 AM 73.4 °F - 66.2 °F 78% 29.98 in 5.0 mi North 2.3 mph - N/A   Unknown
6:20 AM 71.6 °F - 64.4 °F 78% 29.98 in - North 3.5 mph - N/A   Clear
6:50 AM 73.4 °F - 64.4 °F 73% 30.01 in - NNE 2.3 mph - N/A   Clear
7:20 AM 75.2 °F - 66.2 °F 73% 29.98 in - Variable 2.3 mph - N/A   Clear
7:50 AM - - - N/A% - - Variable 2.3 mph - N/A   Clear
8:20 AM 78.8 °F - 68.0 °F 69% 30.01 in - ENE 3.5 mph - N/A   Clear
8:50 AM 78.8 °F - 68.0 °F 69% 30.01 in - NNE 3.5 mph - N/A   Clear
9:20 AM 80.6 °F 83.2 °F 68.0 °F 65% 30.01 in - Variable 3.5 mph - N/A   Clear
9:50 AM 80.6 °F 82.7 °F 66.2 °F 61% 30.01 in - Variable 3.5 mph - N/A   Clear
10:20 AM 84.2 °F 87.3 °F 68.0 °F 58% 30.01 in 6.2 mi Variable 3.5 mph - N/A   Partly Cloudy
10:50 AM 82.4 °F 85.4 °F 68.0 °F 62% 30.01 in 6.2 mi Variable 4.6 mph - N/A   Partly Cloudy
11:20 AM 84.2 °F 87.3 °F 68.0 °F 58% 30.01 in 6.2 mi Variable 3.5 mph - N/A   Partly Cloudy
11:50 AM 84.2 °F 87.3 °F 68.0 °F 58% 30.01 in 6.2 mi South 8.1 mph - N/A   Partly Cloudy
12:20 PM 84.2 °F 87.3 °F 68.0 °F 58% 30.01 in 6.2 mi South 8.1 mph - N/A   Partly Cloudy
12:50 PM 84.2 °F 87.3 °F 68.0 °F 58% 29.98 in 6.2 mi South 8.1 mph - N/A   Partly Cloudy
1:20 PM 84.2 °F 87.3 °F 68.0 °F 58% 29.98 in 6.2 mi South 9.2 mph - N/A   Partly Cloudy
1:50 PM 86.0 °F 89.4 °F 68.0 °F 55% 29.98 in 6.2 mi South 10.4 mph - N/A   Partly Cloudy
2:20 PM 84.2 °F 87.3 °F 68.0 °F 58% 29.98 in 6.2 mi South 10.4 mph - N/A   Partly Cloudy
2:50 PM 84.2 °F 87.3 °F 68.0 °F 58% 29.98 in 6.2 mi South 11.5 mph - N/A   Partly Cloudy
3:20 PM 84.2 °F 86.6 °F 66.2 °F 55% 29.98 in 6.2 mi South 9.2 mph - N/A   Partly Cloudy
3:50 PM 86.0 °F 89.4 °F 68.0 °F 55% 29.95 in 6.2 mi South 8.1 mph - N/A   Partly Cloudy
4:20 PM 84.2 °F 88.4 °F 69.8 °F 62% 29.95 in 6.2 mi South 10.4 mph - N/A   Partly Cloudy
4:50 PM 84.2 °F 87.3 °F 68.0 °F 58% 29.95 in 6.2 mi South 9.2 mph - N/A   Partly Cloudy
5:20 PM 86.0 °F 90.4 °F 69.8 °F 58% 29.95 in 6.2 mi SSW 9.2 mph - N/A   Partly Cloudy
5:50 PM 84.2 °F 88.4 °F 69.8 °F 62% 29.95 in 6.2 mi South 8.1 mph - N/A   Partly Cloudy
6:20 PM 84.2 °F 88.4 °F 69.8 °F 62% 29.95 in 6.2 mi SSW 5.8 mph - N/A   Partly Cloudy
6:50 PM 84.2 °F 86.6 °F 66.2 °F 55% 29.95 in - West 8.1 mph - N/A   Clear
7:20 PM 82.4 °F 84.6 °F 66.2 °F 58% 29.95 in - WNW 8.1 mph - N/A   Clear
7:50 PM 80.6 °F 83.2 °F 68.0 °F 65% 29.95 in - WNW 9.2 mph - N/A   Clear
8:20 PM 80.6 °F 83.9 °F 69.8 °F 70% 29.95 in - West 6.9 mph - N/A   Clear
8:50 PM 80.6 °F 83.9 °F 69.8 °F 70% 29.98 in - WNW 8.1 mph - N/A   Clear
9:20 PM 80.6 °F 83.2 °F 68.0 °F 65% 29.98 in - North - - N/A   Clear
9:50 PM 78.8 °F - 69.8 °F 74% 29.98 in - NW 5.8 mph - N/A   Clear
10:20 PM 78.8 °F - 69.8 °F 74% 29.98 in - Variable 2.3 mph - N/A   Clear
10:50 PM 78.8 °F - 68.0 °F 69% 29.98 in - Variable 2.3 mph - N/A   Clear
11:20 PM 78.8 °F - 69.8 °F 74% 29.98 in - Calm Calm - N/A   Clear
11:50 PM 77.0 °F - 69.8 °F 78% 29.98 in - Calm Calm - N/A   Clear